CEST,Max TemperatureF,Mean TemperatureF,Min TemperatureF,Max Dew PointF,MeanDew PointF,Min DewpointF,Max Humidity, Mean Humidity, Min Humidity, Max Sea Level PressureIn, Mean Sea Level PressureIn, Min Sea Level PressureIn, Max VisibilityMiles, Mean VisibilityMiles, Min VisibilityMiles, Max Wind SpeedMPH, Mean Wind SpeedMPH, Max Gust SpeedMPH,PrecipitationIn, CloudCover, Events, WindDirDegrees
2013-3-1,39,36,33,32,29,22,81,72,43,30.17,30.10,30.06,12,6,4,16,7,,0.00,7,,309
2013-3-2,44,37,28,27,24,21,80,63,31,30.25,30.15,30.12,19,7,6,13,7,,0.00,3,,305
2013-3-3,43,34,24,27,24,21,93,69,40,30.18,30.09,30.06,16,6,2,20,6,,0.00,5,,303
2013-3-4,45,37,29,27,24,18,80,62,26,30.29,30.23,30.18,12,7,6,10,6,,0.00,2,,42
2013-3-5,49,39,29,27,25,23,80,57,29,30.24,30.11,29.95,19,16,12,22,11,,0.00,,,115
2013-3-6,59,47,35,39,33,23,81,61,34,29.97,29.79,29.65,19,9,6,18,10,,0.00,2,,110
2013-3-7,56,49,42,45,42,39,87,75,53,29.68,29.59,29.56,16,7,5,12,8,,0.00,5,,102
2013-3-8,51,45,39,45,42,37,93,84,70,29.65,29.61,29.59,4,3,2,18,8,,0.00,7,Rain,67
2013-3-9,44,40,37,37,36,35,93,83,66,29.68,29.62,29.59,6,4,2,13,9,,0.01,7,Rain,71
2013-3-10,44,40,37,41,38,36,93,91,87,29.62,29.51,29.47,2,2,1,7,4,,0.00,8,Rain,71
2013-3-11,46,38,30,43,33,25,100,79,46,29.63,29.52,29.44,16,4,0,18,6,,0.00,6,Fog,327
2013-3-12,37,32,28,27,26,23,86,78,50,29.69,29.54,29.44,6,4,2,17,12,,0.00,7,Snow,68
2013-3-13,38,34,30,32,28,24,87,79,62,29.62,29.50,29.44,4,3,1,16,10,,0.02,8,Rain-Snow,44
2013-3-14,30,27,24,25,17,9,86,64,34,29.70,29.62,29.59,10,6,3,29,14,36,0.00,7,Snow,339
2013-3-15,33,29,24,21,14,8,69,55,32,29.99,29.77,29.59,19,7,3,29,22,37,0.00,4,Rain-Snow,332
2013-3-16,35,28,21,18,14,7,80,60,21,30.16,30.07,30.01,12,7,5,12,9,,0.00,3,,348
2013-3-17,38,28,18,19,14,10,74,54,23,30.16,29.96,29.80,16,7,6,25,15,37,0.00,6,,112
2013-3-18,36,32,29,32,25,16,100,79,43,29.83,29.54,29.24,19,3,0,24,16,31,0.24,8,Snow,128
2013-3-19,42,37,32,32,30,27,93,78,60,29.62,29.40,29.18,19,6,2,21,11,,0.01,7,Rain-Snow,238
2013-3-20,49,38,27,32,30,25,93,72,46,29.75,29.69,29.62,19,9,6,9,4,,0.00,1,,64
2013-3-21,45,38,32,36,29,21,93,71,45,30.01,29.86,29.74,19,7,5,30,10,34,0.00,4,Rain,310
2013-3-22,35,32,29,23,20,18,69,60,37,30.09,30.01,29.95,19,6,6,18,12,,0.00,7,,344
2013-3-23,30,24,19,19,12,4,69,56,26,30.19,30.10,30.06,19,7,6,23,16,31,0.00,5,Snow,48
2013-3-24,32,24,17,10,5,-4,58,43,21,30.24,30.11,30.06,16,8,6,25,20,32,0.00,5,,55
2013-3-25,28,24,21,19,14,6,86,63,30,30.13,29.95,29.83,16,4,1,26,19,36,0.02,7,Snow,55
2013-3-26,30,27,24,19,14,7,80,59,27,29.87,29.77,29.74,12,6,3,23,18,25,0.00,6,Snow,44
2013-3-27,34,28,23,23,21,18,86,73,47,29.95,29.84,29.80,12,5,2,17,10,,0.00,7,Snow,48
2013-3-28,36,32,27,27,24,21,86,72,42,29.97,29.90,29.83,16,6,2,18,12,,0.00,8,,109
2013-3-29,37,34,32,34,31,25,100,89,64,29.86,29.73,29.68,6,3,1,18,10,,0.20,8,Rain-Snow,134
2013-3-30,42,38,33,34,31,27,93,78,46,29.76,29.68,29.62,6,4,1,14,4,,0.00,8,Rain-Snow,61
2013-3-31,33,32,30,30,29,25,93,87,75,29.73,29.60,29.53,6,2,0,22,14,,0.12,7,Rain-Snow,346
2013-4-1,,,,,,,,,,,,,,,,,,,,,,